Springfield, MO

2:59 PM CDT on April 30, 2017 (GMT -0500)
Springfield-Branson Regional

Weather History for KSGF - June, 2012

Change the Weather History Date:

Monday, June 18, 2012

  Actual Average Record
Temperature  
Mean Temperature 81 °F 74 °F  
Max Temperature 92 °F 85 °F 99 °F (1952)
Min Temperature 69 °F 64 °F 47 °F (1966)
Degree Days  
Heating Degree Days 0 0  
Month to date heating degree days 8 7  
Since 1 June heating degree days 8 7  
Since 1 July heating degree days 3680 4576  
Cooling Degree Days 16 9  
Month to date cooling degree days 143 134  
Year to date cooling degree days 403 249  
Since 1 June cooling degree days 143 134  
Growing Degree Days 30 (Base 50)    
Moisture  
Dew Point 61 °F    
Average Humidity 54    
Maximum Humidity 78    
Minimum Humidity 30    
Precipitation  
Precipitation 0.00 in 0.17 in 2.52 in (1948)
Month to date precipitation 1.08 2.92  
Year to date precipitation 14.99 20.95  
Snow  
Snow 0.00 in - - ()
Month to date snowfall 0.0  
Since 1 June snowfall 0.0  
Since 1 July snowfall 2.8  
Snow Depth 0.00 in    
Sea Level Pressure  
Sea Level Pressure 29.80 in    
Wind  
Wind Speed 14 mph (South)    
Max Wind Speed 23 mph    
Max Gust Speed 29 mph    
Visibility 10 miles    
Events      
T = Trace of Precipitation, MM = Missing Value Source: NWS Daily Summary

Daily Weather History Graph

Daily Weather History Graph

Search for Another Location

Airport or City:

Trip Planner

Search our weather history database for the weather conditions in past years. The results will help you decide how hot, cold, wet, or windy it might be!

Date:

Astronomy

Jun. 18, 2012 Rise Set
Actual Time 5:53 AM CDT 8:36 PM CDT
Civil Twilight 5:22 AM CDT 9:07 PM CDT
Nautical Twilight 4:43 AM CDT 9:46 PM CDT
Astronomical Twilight 3:59 AM CDT 10:30 PM CDT
Moon 5:07 AM CDT (6/18) 7:56 PM CDT (6/18)
Length of Visible Light 15h 45m
Length of Day
14h 43m
Waning Crescent, 1% of the Moon is Illuminated
Jun 18
Waning Crescent
Jun 19
New
Jun 26
First Quarter
Jul 3
Full
Jul 10
Last Quarter

Hourly Weather History & Observations

Time (CDT) Temp. Heat Index Dew Point Humidity Pressure Visibility Wind Dir Wind Speed Gust Speed Precip Events Conditions
12:52 AM 75.0 °F - 62.1 °F 64% 29.79 in 10.0 mi South 10.4 mph - N/A   Clear
1:52 AM 73.0 °F - 62.1 °F 68% 29.80 in 10.0 mi South 10.4 mph - N/A   Clear
2:52 AM 72.0 °F - 62.1 °F 71% 29.80 in 10.0 mi South 9.2 mph - N/A   Clear
3:52 AM 70.0 °F - 62.1 °F 76% 29.80 in 10.0 mi SSE 9.2 mph - N/A   Clear
4:52 AM 70.0 °F - 62.1 °F 76% 29.80 in 10.0 mi SSE 9.2 mph - N/A   Clear
5:52 AM 69.1 °F - 62.1 °F 78% 29.81 in 10.0 mi SSE 11.5 mph - N/A   Clear
6:52 AM 70.0 °F - 63.0 °F 78% 29.81 in 10.0 mi SSE 11.5 mph - N/A   Clear
7:52 AM 73.9 °F - 64.0 °F 71% 29.82 in 10.0 mi South 15.0 mph 21.9 mph N/A   Clear
8:52 AM 77.0 °F - 66.0 °F 69% 29.82 in 10.0 mi South 17.3 mph 23.0 mph N/A   Clear
9:52 AM 81.0 °F 82.7 °F 64.9 °F 58% 29.82 in 10.0 mi South 18.4 mph 27.6 mph N/A   Clear
10:52 AM 82.9 °F 84.6 °F 64.9 °F 54% 29.82 in 10.0 mi SSW 19.6 mph 27.6 mph N/A   Clear
11:52 AM 84.9 °F 85.9 °F 63.0 °F 48% 29.81 in 10.0 mi South 20.7 mph - N/A   Clear
12:52 PM 88.0 °F 88.7 °F 63.0 °F 43% 29.81 in 10.0 mi South 16.1 mph 25.3 mph N/A   Clear
1:52 PM 89.1 °F 89.0 °F 61.0 °F 39% 29.80 in 10.0 mi SSW 16.1 mph 25.3 mph N/A   Clear
2:52 PM 91.0 °F 89.7 °F 57.0 °F 32% 29.79 in 10.0 mi South 19.6 mph 25.3 mph N/A   Clear
3:52 PM 91.0 °F 89.2 °F 55.9 °F 30% 29.78 in 10.0 mi SSW 13.8 mph 23.0 mph N/A   Clear
4:52 PM 91.0 °F 88.9 °F 55.0 °F 29% 29.77 in 10.0 mi South 12.7 mph - N/A   Clear
5:52 PM 91.0 °F 89.2 °F 55.9 °F 30% 29.76 in 10.0 mi South 17.3 mph - N/A   Clear
6:52 PM 89.1 °F 87.7 °F 57.0 °F 34% 29.76 in 10.0 mi South 11.5 mph - N/A   Clear
7:52 PM 86.0 °F 85.0 °F 57.9 °F 38% 29.77 in 10.0 mi South 11.5 mph - N/A   Clear
8:52 PM 82.0 °F 82.0 °F 57.9 °F 44% 29.78 in 10.0 mi South 11.5 mph - N/A   Clear
9:52 PM 82.0 °F 82.1 °F 59.0 °F 45% 29.80 in 10.0 mi South 10.4 mph - N/A   Clear
10:52 PM 80.1 °F 80.9 °F 60.1 °F 50% 29.82 in 10.0 mi South 12.7 mph - N/A   Clear
11:52 PM 78.1 °F - 61.0 °F 56% 29.83 in 10.0 mi South 15.0 mph - N/A   Clear